This demonstration page uses our WeatherBlox Daily Observations layout. Learn more.

Left ArrowRight Arrow

Hourly Observations for May 21, 2021

Temp ( °F °C ) Dew Point ( °F °C ) Humidity (%) Winds ( mph kmh ) Pressure ( in mb ) Visibility ( mi km ) Precip ( " mm )
12:53 am 00:53 Cloudy 30 -1.1 28 -2.2 92 92 NNE 6 9 30.27 1025 8 13 0.00 0.00
1:53 am 01:53 Cloudy with Mist and Fog 30 -1.1 28 -2.2 92 92 NNW 8 13 30.26 1025 4 6 0.00 0.00
2:36 am 02:36 Cloudy 30 -1.1 27 -2.8 88 88 NNW 8 13 30.28 1025 10 16 0.00 0.00
2:53 am 02:53 Cloudy 30 -1.1 27 -2.8 88 88 NNW 3 6 30.25 1024 10 16 0.00 0.00
3:53 am 03:53 Cloudy 30 -1.1 26 -3.3 85 85 N 10 17 30.24 1024 10 16 0.00 0.00
4:53 am 04:53 Cloudy 30 -1.1 26 -3.3 85 85 NNE 8 13 30.28 1025 10 16 0.00 0.00
5:08 am 05:08 Cloudy with Light Snow 30 -1.1 27 -2.8 88 88 N 5 7 30.31 1027 2 3 0.01 0.25
5:17 am 05:17 Cloudy with Light Snow 30 -1.1 27 -2.8 88 88 N 5 7 30.32 1027 1 2 0.02 0.51
5:28 am 05:28 Cloudy with Light Snow 29 -1.7 27 -2.8 92 92 NNW 3 6 30.34 1027 1 2 0.04 1.02
5:36 am 05:36 Mostly Cloudy with Snow 29 -1.7 27 -2.8 92 92 NW 3 6 30.35 1028 1 1 0.05 1.27
5:46 am 05:46 Mostly Cloudy with Snow 29 -1.7 28 -2.2 96 96 NW 3 6 30.35 1028 1 1 0.07 1.78
5:53 am 05:53 Mostly Cloudy with Heavy Snow 29 -1.7 28 -2.2 96 96 NW 5 7 30.32 1027 0 0 0.10 2.54
6:11 am 06:11 Mostly Cloudy with Heavy Snow 29 -1.7 27 -2.8 92 92 NNW 6 9 30.35 1028 0 0 0.05 1.27
6:24 am 06:24 Mostly Cloudy with Heavy Snow 29 -1.7 27 -2.8 92 92 N 7 11 30.35 1028 N/A 0.10 2.54
6:45 am 06:45 Mostly Cloudy with Snow 29 -1.7 27 -2.8 92 92 N 7 11 30.36 1028 0 0 0.18 4.57
6:53 am 06:53 Mostly Cloudy with Snow 29 -1.7 27 -2.8 92 92 N 6 9 30.33 1027 0 0 0.19 4.83
7:00 am 07:00 Mostly Cloudy with Snow 29 -1.7 27 -2.8 92 92 N 6 9 30.36 1028 0 0 0.01 0.25
7:51 am 07:51 Mostly Cloudy with Snow 28 -2 27 -3 93 93 N 6 9 30.36 1028 1 1 0.08 2.03
7:53 am 07:53 Mostly Cloudy with Snow 29 -1.7 27 -2.8 92 92 N 6 9 30.33 1027 1 1 0.08 2.03
8:02 am 08:02 Mostly Cloudy with Light Snow 29 -1.7 27 -2.8 92 92 NNE 8 13 30.36 1028 1 1 0.00 0.00
8:06 am 08:06 Mostly Cloudy with Light Snow 29 -1.7 27 -2.8 92 92 NNE 7 11 30.36 1028 1 2 0.00 0.00
8:14 am 08:14 Cloudy with Light Snow 29 -1.7 27 -2.8 92 92 N 8 13 30.36 1028 2 3 0.00 0.00
8:26 am 08:26 Cloudy with Mist and Fog 30 -1.1 27 -2.8 88 88 NNE 8 13 30.35 1028 4 6 0.00 0.00
8:34 am 08:34 Cloudy with Mist and Fog 30 -1.1 27 -2.8 88 88 NNE 7 11 30.35 1028 6 10 0.00 0.00
8:53 am 08:53 Cloudy 30 -1.1 27 -2.8 88 88 N 7 11 30.33 1027 10 16 0.00 0.00
9:03 am 09:03 Cloudy 31 -0.6 27 -2.8 85 85 N 6 9 30.36 1028 10 16 0.00 0.00
9:53 am 09:53 Cloudy 31 -0.6 27 -2.8 85 85 N 7 11 30.34 1027 10 16 0.00 0.00
10:27 am 10:27 Cloudy 32 0 27 -2.8 82 82 N 8 13 30.36 1028 10 16 0.00 0.00
10:44 am 10:44 Cloudy 32 0 27 -2.8 82 82 NNE 9 15 30.36 1028 10 16 0.00 0.00
10:53 am 10:53 Cloudy 32 0 27 -2.8 82 82 NE 10 17 30.35 1028 10 16 0.00 0.00
11:06 am 11:06 Cloudy 32 0 27 -2.8 82 82 NNE 8 13 30.37 1028 10 16 0.00 0.00
11:16 am 11:16 Cloudy 32 0 27 -2.8 82 82 NNE 9 15 30.36 1028 10 16 0.00 0.00
11:28 am 11:28 Cloudy 32 0 27 -2.8 82 82 NNE 9 15 30.37 1028 10 16 0.00 0.00
11:53 am 11:53 Cloudy 32 0 27 -2.8 82 82 NE 9 15 30.37 1028 10 16 0.00 0.00
12:05 pm 12:05 Cloudy 32 0 27 -2.8 82 82 NNE 9 15 30.39 1029 10 16 0.00 0.00
12:30 pm 12:30 Cloudy 32 0 27 -2.8 82 82 NNE 8 13 30.39 1029 10 16 0.00 0.00
12:53 pm 12:53 Cloudy 33 0.6 26 -3.3 75 75 NNE 10 17 30.37 1029 10 16 0.00 0.00
1:39 pm 13:39 Cloudy 33 0.6 26 -3.3 75 75 NNE 12 19 30.38 1029 10 16 0.00 0.00
1:46 pm 13:46 Cloudy 33 0.6 26 -3.3 75 75 NE 10 17 30.40 1029 10 16 0.00 0.00
1:53 pm 13:53 Cloudy 33 0.6 27 -2.8 78 78 NNE 8 13 30.38 1029 10 16 0.00 0.00
2:08 pm 14:08 Cloudy 33 0.6 26 -3.3 75 75 NNE 10 17 30.38 1029 10 16 0.00 0.00
2:29 pm 14:29 Cloudy 34 1.1 27 -2.8 76 76 N 10 17 30.36 1028 10 16 0.00 0.00
2:53 pm 14:53 Mostly Cloudy 34 1.1 27 -2.8 76 76 N 15 24 30.34 1027 10 16 0.00 0.00
3:53 pm 15:53 Cloudy 34 1.1 26 -3.3 73 73 NNE 10 17 30.36 1028 10 16 0.00 0.00
4:19 pm 16:19 Cloudy 33 0.6 26 -3.3 75 75 N 9 15 30.37 1029 10 16 0.00 0.00
4:45 pm 16:45 Cloudy 33 0.6 26 -3.3 75 75 N 12 19 30.37 1029 10 16 0.00 0.00
4:53 pm 16:53 Cloudy 33 0.6 26 -3.3 75 75 N 10 17 30.36 1028 10 16 0.00 0.00
5:53 pm 17:53 Cloudy 33 0.6 26 -3.3 75 75 N 8 13 30.39 1029 10 16 0.00 0.00
6:53 pm 18:53 Cloudy 33 0.6 26 -3.3 75 75 N 6 9 30.39 1029 10 16 0.00 0.00
7:53 pm 19:53 Cloudy 32 0 27 -2.8 82 82 N 7 11 30.37 1028 10 16 0.00 0.00
8:07 pm 20:07 Cloudy 32 0 27 -2.8 82 82 NNW 7 11 30.39 1029 10 16 0.00 0.00
8:53 pm 20:53 Cloudy 32 0 27 -2.8 82 82 N 3 6 30.40 1029 9 14 0.00 0.00
9:16 pm 21:16 Cloudy with Light Snow 32 0 27 -2.8 82 82 Calm 30.41 1030 3 4 0.01 0.25
9:23 pm 21:23 Cloudy with Light Snow 32 0 27 -2.8 82 82 Calm 30.42 1030 3 4 0.01 0.25
9:46 pm 21:46 Cloudy with Light Snow 31 -0.6 28 -2.2 89 89 Calm 30.44 1031 1 2 0.03 0.76
9:53 pm 21:53 Mostly Cloudy with Light Snow 31 -0.6 28 -2.2 89 89 Calm 30.41 1030 1 2 0.03 0.76
10:10 pm 22:10 Mostly Cloudy with Light Snow 30 -1.1 29 -1.7 96 96 Calm 30.44 1031 1 1 0.02 0.51
10:40 pm 22:40 Mostly Cloudy with Light Snow 30 -1.1 29 -1.7 96 96 NW 3 6 30.42 1030 1 2 0.06 1.52
10:53 pm 22:53 Mostly Cloudy with Light Snow 30 -1.1 29 -1.7 96 96 NW 3 6 30.39 1029 1 1 0.07 1.78
10:56 pm 22:56 Cloudy with Light Snow 30 -1.1 29 -1.7 96 96 NNW 3 6 30.42 1030 1 2 0.00 0.00
11:07 pm 23:07 Cloudy with Light Snow 30 -1.1 29 -1.7 96 96 NNW 3 6 30.41 1030 2 3 0.01 0.25
11:17 pm 23:17 Cloudy with Light Snow 31 -0.6 29 -1.7 92 92 N 3 6 30.41 1030 3 5 0.01 0.25
11:53 pm 23:53 Cloudy with Light Snow 30 -1.1 29 -1.7 96 96 Calm 30.40 1029 4 6 0.02 0.51

Powered by AerisWeather